GFSGBSN_2pvu_pres_057.txt.gz
Presure
160 188 199 180 203 197 169 210 214 209 169 212 216 173 208 197 172 207 219 205 204 177 219 213 199 200 184 194 182 184 183 208 183 207 202 210 201 203 203 193 198 207 220 213 206 232 223
188 197 207 205 206 214 224 205 227 231 216 187 207 217 162 197 162 207 176 190 213 202 212 196 189 202 201 153 181 184 189 202 186 207 203 210 205 206 199 193 207 210 205 201 217 215 212
193 197 204 209 211 227 242 253 249 240 209 224 223 233 180 176 188 200 206 202 210 203 195 186 191 160 148 199 163 197 201 191 199 187 199 202 204 195 203 207 210 194 208 214 211 216 208
191 210 195 206 219 235 224 237 215 243 238 245 237 216 206 209 238 215 206 212 215 211 157 194 179 184 191 203 179 199 194 188 196 185 201 197 193 187 189 208 180 184 175 205 207 213 222
234 216 229 225 306 215 224 212 306 313 307 304 329 264 280 264 220 242 233 239 234 207 180 204 199 206 206 198 182 182 188 193 189 199 190 177 196 192 183 184 182 181 197 195 203 200 214
223 214 230 226 224 309 273 238 272 299 288 289 277 282 274 257 253 242 234 228 213 232 178 202 171 200 207 191 202 182 191 194 181 191 191 197 195 178 187 194 196 186 198 189 198 193 208
250 221 217 241 215 284 297 298 284 278 266 267 262 293 256 243 230 239 239 228 218 184 232 191 232 209 193 205 190 190 193 191 152 175 181 185 197 198 179 164 197 155 191 189 183 190 209
223 247 239 227 287 293 283 284 289 263 267 242 265 277 244 245 236 233 234 234 230 213 207 220 224 205 193 196 193 194 184 190 187 187 190 187 204 161 188 191 189 187 190 190 183 196 190
244 250 248 272 266 262 286 271 259 270 271 251 263 270 243 242 244 231 221 220 209 223 188 182 220 203 203 192 192 191 188 189 182 186 185 194 205 181 185 192 189 187 189 177 178 181 189
302 268 277 255 280 275 269 278 273 278 270 252 263 257 242 236 236 229 220 233 218 224 213 220 219 198 200 201 193 192 193 182 189 181 194 190 196 190 187 171 189 175 190 181 175 176 200
271 265 253 252 272 268 269 251 264 271 266 257 254 254 248 235 233 224 223 220 210 224 227 218 218 210 208 207 197 195 192 196 168 173 191 193 188 195 186 191 164 172 178 171 183 172 172
257 252 261 266 263 273 269 269 259 269 275 256 256 251 231 239 234 228 238 214 229 206 212 222 217 217 198 200 197 192 188 198 188 189 180 177 190 184 181 185 175 197 168 158 191 172 180
259 265 270 288 296 292 287 279 272 276 276 268 254 237 247 240 225 229 230 225 208 196 226 216 219 214 198 213 206 199 189 186 186 186 188 189 195 187 201 188 156 182 164 156 157 159 170
286 291 290 279 277 277 276 281 287 254 280 283 272 253 243 250 245 228 224 225 232 202 205 222 207 209 206 205 208 193 197 198 197 197 192 189 184 185 190 201 180 190 183 183 192 164 173
285 275 287 279 284 299 303 296 275 284 252 276 287 264 251 246 252 230 227 230 227 227 232 215 200 208 208 204 195 201 193 187 191 185 184 187 183 196 201 192 205 189 158 185 166 172 199
290 271 292 316 346 372 425 458 397 294 289 264 284 284 263 243 252 246 238 235 230 229 244 224 218 218 189 210 204 199 191 194 176 196 197 194 185 149 196 202 198 165 184 181 164 189 187
284 299 343 406 420 456 440 440 442 389 314 286 271 286 271 264 257 248 256 242 231 246 226 229 221 213 204 206 208 203 208 200 196 196 189 188 195 181 193 191 182 166 156 191 148 194 198
286 337 397 399 389 418 419 420 417 411 373 292 287 273 267 274 260 251 232 240 255 229 230 228 223 151 215 197 204 207 194 191 190 194 195 203 202 190 194 173 198 173 159 203 202 188 187
327 394 373 382 380 391 392 399 396 395 383 392 294 286 267 121 279 225 248 240 238 177 244 234 224 228 221 231 201 210 206 202 199 198 199 199 180 195 198 205 203 193 187 196 195 160 189
376 354 360 353 372 375 379 376 381 364 379 371 356 292 283 286 278 278 250 249 236 230 222 239 241 240 162 224 222 222 203 204 206 203 201 201 199 210 206 211 187 193 206 198 204 172 188
325 318 327 345 350 353 359 363 365 362 307 323 346 285 297 274 283 262 272 251 240 231 236 229 217 219 214 222 217 208 226 214 208 215 218 207 208 218 212 209 213 209 204 203 201 194 150
373 375 369 369 365 348 346 352 350 297 301 317 325 336 345 284 276 292 269 275 219 252 240 234 186 227 227 220 219 221 224 231 230 235 246 236 228 223 210 200 202 206 206 201 199 189 192
328 327 328 331 333 339 354 353 340 286 290 295 294 306 313 161 330 111 98 142 263 270 258 244 205 229 231 144 232 211 213 214 213 214 218 219 218 214 213 211 212 184 199 202 196 198 187
300 296 297 301 301 311 319 325 335 303 341 348 299 315 299 289 301 320 314 279 281 265 263 267 208 123 236 233 238 226 221 214 220 221 216 212 213 214 217 221 217 208 203 200 199 199 204
283 278 279 280 279 278 281 286 306 313 321 338 301 324 345 327 324 307 303 330 349 350 277 273 279 262 273 172 258 241 234 229 228 220 214 216 216 209 209 217 225 204 212 158 198 198 204
279 280 279 279 281 284 281 278 276 282 285 289 281 307 304 293 308 310 310 308 279 316 333 326 319 258 274 278 275 270 259 272 259 246 248 231 221 226 221 213 219 205 215 220 206 204 199
282 278 273 271 273 275 276 273 274 276 279 284 279 285 283 289 287 288 286 292 292 294 295 301 305 311 244 128 330 288 301 289 275 233 261 265 264 236 214 232 222 135 212 217 216 108 217
276 283 277 269 270 269 271 268 266 267 269 272 278 278 275 277 262 275 276 277 103 176 188 279 290 293 295 228 305 316 321 307 330 299 255 262 264 266 266 252 222 211 206 195 215 207 166
321 311 289 256 272 279 260 260 264 271 269 274 275 273 272 272 270 271 270 266 254 271 267 282 291 268 133 296 292 304 302 142 309 309 319 310 312 259 272 269 262 255 245 210 210 220 217

GFSGBSN_2pvu_pres_063.txt.gz
Presure
200 189 199 193 193 190 186 178 186 195 135 181 195 196 144 149 199 205 190 213 199 224 237 202 228 239 178 161 198 204 188 204 184 200 186 198 196 163 156 198 188 214 210 207 209 200 200
188 187 190 193 190 192 189 194 184 195 196 184 196 196 191 136 211 162 198 240 218 228 231 199 227 200 214 185 216 189 183 193 198 197 181 196 199 189 186 193 194 212 210 211 199 196 201
200 195 188 195 192 194 196 196 195 187 193 196 195 211 192 206 208 234 266 210 154 304 258 177 242 236 195 218 219 183 198 172 185 194 202 199 199 195 189 190 174 214 190 208 195 194 177
181 186 192 195 197 193 186 182 195 197 200 186 188 218 217 219 224 248 249 172 260 221 344 354 220 211 159 215 217 203 183 167 190 194 197 196 173 203 192 164 183 202 187 195 190 187 187
177 195 192 183 189 194 207 200 209 214 185 214 219 228 223 190 240 237 238 250 305 320 306 334 316 291 219 210 191 201 189 204 190 194 187 207 190 165 190 189 200 199 186 190 184 194 179
192 202 203 198 217 209 182 218 213 226 219 189 228 238 226 242 309 237 314 317 312 296 309 300 338 285 217 188 201 202 180 213 194 198 189 208 173 180 168 189 197 192 193 187 190 183 187
219 222 205 205 236 217 183 204 216 196 219 220 233 248 316 223 311 306 308 295 308 285 307 348 357 231 239 219 210 191 174 202 202 198 225 193 165 176 194 189 191 192 197 193 186 189 185
217 223 210 233 219 199 228 218 205 225 215 203 230 260 218 270 306 296 295 285 287 275 296 309 285 271 233 235 212 206 210 222 195 232 211 164 170 190 199 181 190 194 200 186 191 186 188
229 210 228 205 203 223 214 230 224 224 229 235 241 281 245 270 298 285 267 289 271 283 294 280 275 258 258 243 207 220 218 213 223 226 198 193 201 202 195 188 187 194 198 187 190 189 179
219 226 220 210 218 203 218 202 233 211 236 222 305 262 305 284 284 286 254 295 267 274 281 264 261 247 250 239 235 221 231 217 221 208 198 197 194 201 196 186 186 184 212 191 187 185 179
212 233 232 209 208 222 212 220 244 258 242 321 301 297 291 279 273 261 256 295 269 265 282 243 248 237 235 231 225 221 222 212 202 198 192 185 204 197 194 190 186 178 194 193 188 192 179
225 220 223 228 218 234 233 247 230 246 314 283 286 280 270 266 275 263 264 263 266 271 261 246 222 242 231 226 231 214 219 205 210 198 185 208 205 197 197 188 186 152 187 199 194 186 178
231 236 237 231 228 228 263 259 297 288 300 283 290 283 289 271 276 284 268 258 271 279 257 245 226 229 229 225 209 215 212 206 201 201 213 201 201 196 191 185 179 186 187 190 200 180 183
245 242 243 245 251 250 316 312 299 304 304 291 293 292 284 281 283 289 288 268 284 282 249 236 229 220 225 214 213 212 198 210 204 216 207 200 209 198 191 190 186 138 185 196 198 195 168
263 265 271 313 319 315 256 308 302 296 292 289 294 294 290 294 296 303 302 327 297 276 253 238 220 221 226 213 203 207 211 217 206 211 208 187 203 197 196 194 163 184 177 188 187 183 166
315 316 297 273 284 304 295 291 288 283 283 288 287 286 279 284 285 286 296 315 309 271 249 235 223 215 227 219 212 215 206 196 190 194 201 205 201 203 199 193 193 192 170 182 185 186 186
301 302 288 284 273 275 271 273 277 274 272 278 277 280 274 278 290 294 304 294 316 266 259 237 235 231 229 225 213 209 163 206 198 199 203 199 200 191 195 202 190 192 189 185 196 182 175
335 321 314 293 286 283 280 275 270 276 287 291 321 336 347 352 366 368 307 294 302 273 264 238 233 240 232 223 216 216 207 220 206 199 204 212 209 197 200 200 204 188 197 184 197 184 177
367 342 325 319 319 313 306 307 314 313 324 326 333 334 353 170 403 451 459 460 280 283 257 253 240 236 221 217 225 222 206 205 210 206 207 198 204 197 198 200 198 204 194 186 195 180 191
408 390 353 330 313 313 321 324 326 320 327 338 363 347 369 79 149 432 450 455 278 294 269 263 244 235 229 231 226 223 230 215 218 198 214 209 204 209 198 194 199 205 204 193 193 176 183
381 386 377 355 314 321 326 311 313 320 339 344 370 346 359 379 403 421 428 432 283 295 277 253 258 243 237 226 227 223 220 211 211 212 210 219 212 203 197 191 207 197 197 196 183 193 177
361 371 374 348 327 349 357 325 336 333 345 365 318 340 357 368 396 405 414 411 284 273 281 259 252 259 241 235 229 233 226 218 211 209 212 216 221 217 205 199 214 202 196 193 206 204 194
347 351 353 346 341 341 327 323 313 341 337 336 334 343 362 365 387 90 83 82 242 275 276 262 122 248 251 244 229 224 233 226 231 219 223 217 217 210 208 207 203 205 204 201 199 199 200
343 332 335 336 330 321 313 335 349 367 380 345 343 346 363 369 371 86 371 333 285 271 286 271 185 250 249 249 247 230 101 227 225 223 230 220 223 214 209 204 202 206 209 200 198 199 198
394 377 337 324 331 334 348 341 340 344 372 348 341 348 345 353 356 350 339 324 283 275 277 130 267 263 262 250 239 237 238 229 220 227 242 222 230 231 209 222 209 210 210 213 178 211 189
321 325 336 335 345 330 325 321 323 325 353 334 336 340 349 356 352 342 336 335 274 275 263 129 274 268 257 255 251 242 262 222 180 231 235 225 236 236 232 212 219 212 201 202 205 205 211
336 338 330 319 315 316 311 306 307 310 322 348 327 342 351 338 350 343 297 341 279 271 268 260 279 275 265 253 252 239 252 229 253 245 246 240 234 238 223 226 224 223 217 213 212 199 207
306 311 308 306 306 303 296 292 288 291 306 320 336 348 285 292 283 317 283 327 269 265 269 264 265 272 278 265 255 251 246 243 240 250 229 253 248 237 230 230 119 239 245 239 227 155 234
281 282 282 302 295 293 291 285 289 282 284 301 321 297 296 108 285 292 308 313 312 264 97 251 224 265 259 261 261 259 252 237 245 249 240 234 233 238 236 218 223 223 225 227 229 229 236

GFSGBSN_2pvu_pres_069.txt.gz
Presure
163 189 211 214 207 206 203 206 196 182 181 187 185 178 189 187 195 194 182 188 198 189 208 199 192 197 210 199 217 216 217 192 219 199 196 169 194 194 233 182 199 167 204 191 186 197 190
184 217 218 196 185 189 202 205 200 203 194 196 189 189 189 186 190 194 203 199 189 195 188 204 215 203 204 217 200 227 233 231 243 237 193 226 203 245 234 209 222 208 208 202 199 197 202
215 208 241 220 165 195 192 199 204 201 207 197 199 205 207 198 183 204 203 206 187 206 164 151 204 208 209 231 241 176 229 251 175 179 286 246 200 222 187 236 222 207 204 179 203 195 202
207 213 215 236 217 216 204 205 166 199 196 195 196 194 194 198 192 195 203 202 203 204 193 208 207 213 229 226 215 239 205 252 374 179 266 227 208 238 234 233 214 207 186 204 198 189 187
201 215 207 213 199 227 210 206 200 201 195 194 196 199 198 195 203 202 182 197 179 208 208 194 223 222 215 162 233 165 246 351 247 262 283 307 272 221 236 220 206 194 186 191 196 193 200
212 226 220 207 194 210 201 220 230 219 214 201 201 187 197 195 195 200 196 190 203 206 204 210 233 150 258 197 199 201 198 329 348 198 261 264 202 235 245 216 188 195 170 205 194 206 196
226 231 219 225 213 211 214 206 215 208 226 225 230 204 205 205 210 213 213 211 209 193 222 249 244 205 221 251 274 264 329 318 327 280 240 260 230 235 217 204 194 208 151 191 181 202 191
235 228 223 233 222 238 215 223 224 220 214 226 242 220 222 231 213 232 230 236 226 239 200 240 210 213 210 225 222 296 303 329 356 268 256 240 221 229 217 219 205 196 197 188 183 197 189
237 231 238 226 236 235 248 234 238 235 229 246 244 227 226 231 221 241 235 237 238 215 215 225 226 220 259 325 296 292 310 301 288 261 256 217 222 223 211 208 202 197 192 194 185 196 190
263 260 262 231 255 239 234 250 251 256 237 228 244 246 240 251 239 239 227 241 230 232 234 232 241 223 327 333 280 285 309 352 265 256 255 221 223 210 212 206 196 194 188 188 177 195 189
241 241 236 239 240 230 232 229 227 231 234 227 228 218 239 232 239 209 246 247 228 218 219 228 245 326 317 304 273 270 296 313 250 245 252 220 221 204 213 208 197 194 193 198 191 193 175
259 256 254 258 260 253 253 258 253 253 242 249 249 256 244 251 243 247 240 244 240 243 229 246 290 313 297 322 264 274 299 279 251 249 242 212 214 207 188 209 196 187 188 195 189 187 183
256 260 249 253 254 257 258 252 245 257 259 255 244 242 241 242 245 243 248 228 245 242 252 267 327 309 273 261 265 275 282 250 239 230 234 214 203 200 205 206 193 184 201 173 191 183 186
280 284 285 282 272 265 263 262 253 244 239 243 241 246 252 253 235 232 256 242 266 252 242 336 304 302 260 267 254 277 248 235 238 225 224 222 208 204 206 200 191 190 196 183 190 189 191
335 331 314 313 320 332 336 343 293 281 265 253 251 249 242 239 249 252 249 255 256 266 320 314 298 299 254 264 253 260 248 237 236 221 231 223 207 209 207 187 205 216 194 194 187 188 189
408 409 407 404 416 408 332 297 302 317 317 321 323 282 263 259 258 263 306 288 317 303 280 299 299 297 255 261 258 254 256 241 223 222 216 226 211 198 204 196 197 222 199 184 194 188 188
394 411 413 423 441 394 395 418 358 336 295 301 293 307 305 305 310 317 321 301 276 311 306 299 300 302 248 255 260 255 246 229 226 224 217 217 228 212 204 218 192 193 186 197 187 189 187
365 381 400 419 453 583 539 383 406 413 343 327 281 277 268 281 286 273 268 252 294 281 297 292 287 300 267 263 251 256 234 241 228 220 227 214 211 216 200 188 212 211 195 193 181 193 189
346 367 385 414 476 521 521 457 373 400 393 343 336 320 295 273 276 284 271 286 276 271 279 285 283 287 278 264 251 263 249 241 231 218 214 212 222 216 225 213 198 205 190 193 200 182 184
341 362 389 432 491 481 492 460 362 383 386 363 336 331 321 314 199 195 293 265 277 282 269 271 279 286 299 305 256 268 252 231 228 218 219 210 224 220 226 206 205 195 217 198 198 191 187
338 366 403 438 481 473 478 444 354 363 387 373 336 317 319 320 259 280 303 301 300 291 290 294 288 280 295 315 266 269 249 240 228 222 219 211 217 221 223 206 205 206 197 204 197 196 196
336 380 423 446 485 471 486 421 345 352 381 383 367 340 323 322 320 319 315 310 311 316 328 342 344 372 295 313 271 256 253 240 230 225 228 217 214 215 216 209 210 200 201 205 190 202 196
336 394 433 454 482 497 457 347 338 354 387 382 368 350 331 327 323 322 149 147 312 327 325 336 367 376 405 304 277 259 258 241 224 230 219 235 222 215 207 210 197 201 211 200 197 189 202
333 394 440 455 476 421 344 330 343 362 390 390 375 363 337 328 333 313 315 189 313 323 349 94 211 429 435 298 305 256 260 244 232 228 200 226 222 216 207 212 201 205 205 201 203 198 203
321 346 439 375 337 332 338 352 361 372 371 368 359 336 332 325 318 314 330 327 301 347 332 344 391 416 422 292 315 266 258 249 240 226 228 227 212 209 212 193 207 206 203 191 196 198 202
300 319 402 337 327 337 348 353 355 352 341 333 327 329 329 337 332 332 337 328 87 298 336 394 389 408 391 288 317 267 253 252 237 242 229 213 223 217 214 203 206 210 208 200 198 204 209
290 295 326 359 335 324 322 330 324 323 320 318 318 321 327 344 363 395 343 325 321 340 373 384 387 379 383 374 314 267 255 229 244 237 234 224 213 216 215 202 214 208 206 212 202 209 206
280 284 292 338 321 348 339 323 318 309 312 315 318 322 337 403 339 325 312 343 352 374 353 364 361 367 374 343 312 265 263 247 242 236 219 228 224 218 215 216 210 215 203 202 210 217 203
318 279 279 290 343 323 313 310 317 317 304 307 327 328 326 320 320 334 342 361 355 362 348 349 346 354 348 280 305 265 261 253 243 224 233 223 223 225 216 213 218 219 214 209 202 199 204

GFSGBSN_2pvu_pres_075.txt.gz
Presure
196 181 183 183 195 204 206 157 218 234 217 213 211 174 193 203 190 193 200 191 186 182 184 177 193 190 185 184 187 180 184 189 188 187 190 187 183 210 203 217 221 218 213 208 202 138 196
184 190 191 182 177 199 221 220 210 215 239 212 210 218 193 202 200 184 194 198 194 193 184 185 186 190 186 185 189 191 186 187 191 191 192 196 209 204 207 225 230 200 202 209 238 145 243
196 184 196 178 197 224 219 216 219 212 214 225 207 202 213 212 204 194 193 182 188 196 198 200 186 190 186 195 189 186 194 187 190 195 193 199 203 219 219 234 201 228 229 208 270 234 235
190 188 193 191 208 218 220 221 211 228 211 217 218 205 196 206 183 211 205 205 193 194 180 193 201 197 196 187 194 192 192 195 196 192 194 199 225 223 234 192 201 196 266 221 178 135 271
199 195 205 220 222 228 225 230 231 225 218 221 222 214 201 215 206 200 197 206 214 206 205 212 180 183 200 199 198 194 192 194 199 207 212 206 225 227 227 236 241 245 236 246 242 315 239
204 219 236 233 238 238 233 253 246 232 235 230 224 228 208 216 215 216 203 198 207 207 198 210 208 211 210 209 209 200 216 207 212 216 219 219 220 227 166 209 219 229 217 297 298 279 227
211 232 230 228 231 244 240 241 245 237 244 232 229 234 237 205 213 205 204 214 207 212 213 209 202 201 202 212 205 201 210 209 208 213 216 231 158 238 168 247 227 361 198 304 295 280 250
219 238 266 269 294 275 268 275 265 258 257 247 239 236 232 231 215 221 201 209 212 222 201 212 209 204 211 207 207 206 209 210 213 213 211 205 221 215 210 264 262 332 301 301 254 242 241
273 278 270 278 269 265 280 266 264 258 263 251 258 244 232 235 225 225 231 213 223 196 226 219 217 213 222 219 213 236 224 213 232 230 198 211 227 225 206 310 359 295 299 185 231 221 236
282 268 279 266 256 258 254 253 252 257 255 263 260 277 249 252 237 245 231 222 229 231 232 233 221 220 215 216 222 228 219 212 244 238 256 246 221 235 244 327 286 298 306 291 237 234 254
289 270 264 258 253 249 251 249 247 250 251 251 254 254 254 262 268 247 246 248 247 238 240 248 226 229 230 235 226 235 253 257 253 250 260 274 259 256 326 322 274 255 282 265 236 230 242
267 265 268 269 267 265 265 273 272 275 277 268 269 267 261 257 251 254 260 262 264 273 264 258 257 244 242 243 249 250 244 246 243 251 260 275 246 379 296 346 256 261 260 234 229 224 226
279 276 268 266 267 268 275 287 294 324 296 301 296 290 283 279 272 259 256 252 251 246 236 250 250 244 237 242 242 243 237 230 238 244 266 250 253 331 288 325 264 257 225 225 231 232 210
276 264 267 283 341 314 156 304 300 231 172 301 307 320 334 313 279 280 273 270 270 246 242 241 253 250 237 240 232 237 247 238 248 265 239 261 366 290 344 272 257 262 223 214 237 220 210
270 271 300 304 294 341 338 439 447 418 406 410 403 411 400 309 332 302 287 277 279 267 247 247 249 239 234 239 238 243 260 273 260 225 258 302 328 295 277 248 260 231 214 220 233 212 207
276 329 289 305 328 341 426 428 387 378 365 370 367 374 388 451 390 306 336 334 268 268 263 262 259 264 259 256 267 264 281 280 273 259 251 360 284 311 261 245 249 227 215 221 220 213 206
323 280 327 321 338 378 385 358 354 352 347 349 357 365 353 393 416 403 416 297 326 271 264 254 255 260 263 259 260 256 253 248 242 265 344 332 278 279 251 238 235 224 214 223 230 211 207
276 327 318 329 340 380 355 353 354 356 356 358 360 356 341 367 424 401 419 403 309 309 281 268 267 260 251 248 256 262 263 267 282 324 346 257 275 266 250 243 234 218 211 209 226 211 204
319 315 313 329 388 351 345 347 347 347 347 353 371 413 536 480 454 398 393 385 355 300 302 316 312 287 275 267 265 270 279 297 330 336 334 260 244 238 247 240 234 216 207 220 216 205 206
315 309 324 363 354 328 320 319 369 398 412 431 463 462 470 444 391 378 385 376 350 327 283 275 302 309 311 308 312 312 314 321 328 331 273 256 242 239 234 234 228 217 209 207 208 221 199
289 326 323 392 327 308 317 352 378 435 442 474 460 427 418 387 361 362 397 362 335 326 314 283 275 285 300 298 297 314 315 315 298 330 261 250 242 237 232 242 230 221 208 208 214 202 192
328 307 349 363 317 300 310 344 359 454 466 495 424 407 405 379 358 352 363 355 331 323 319 303 276 271 285 280 303 313 267 278 326 328 256 235 248 229 229 234 228 223 205 209 209 198 215
304 337 444 325 304 291 315 337 350 484 452 433 406 410 394 367 353 356 361 343 329 322 319 313 303 290 276 269 269 263 259 295 315 331 261 237 252 230 223 230 226 223 212 201 206 203 200
314 353 416 312 296 285 310 333 333 500 465 435 411 411 372 346 342 351 346 344 301 319 216 311 313 310 295 270 260 269 278 287 303 328 256 257 245 233 233 232 225 217 215 210 203 200 196
344 483 329 302 281 285 304 333 347 329 373 430 395 354 340 336 349 345 341 338 332 233 316 312 314 310 308 301 303 310 300 286 296 315 238 260 237 229 219 229 223 226 218 208 214 205 206
479 347 310 294 285 286 286 335 347 351 333 332 335 336 340 352 349 348 343 337 330 325 318 319 313 97 312 314 318 332 308 278 289 303 259 258 235 230 226 226 228 222 217 221 208 210 207
353 320 301 288 277 267 275 332 326 355 361 358 356 354 350 352 354 349 344 343 340 319 307 303 305 309 316 329 340 332 333 342 293 296 253 263 234 230 227 219 222 225 219 222 213 209 209
323 309 295 282 278 270 309 329 316 341 346 356 365 372 368 360 363 355 355 345 345 326 89 314 319 318 311 306 322 323 348 381 355 285 253 247 250 231 233 230 224 220 209 208 213 225 216
311 297 285 278 270 279 307 285 318 315 325 330 335 338 340 330 327 332 327 329 329 332 299 319 303 308 343 320 332 351 370 358 296 272 299 260 251 242 251 227 216 208 209 224 209 219 219